S5 DEB (44066 NORAD) Tracking and Keplerian Element Data

This shows tracking and keplerian element data for the satellite.

Feedback or suggestion? Click here.




ElementValue
Catalog44066
NameS5 DEB
Epoch Orbit18
Epoch Day80.29631414
Epoch Year2019
RAAN279.0122
Inclination0.0481
Eccentricity0.0003863
Argument of Perigee280.3069
Mean Anonmoly160.6437
Mean Motion0.98982198
Decay Rate3.3E-07
L11 44066U 19009E 19080.29631414 .00000033 00000-0 00000-0 0 9993
L22 44066 0.0481 279.0122 0003863 280.3069 160.6437 0.98982198 186

Live tracking and technical data element details for S5 DEB (NORAD 44066). S5 DEB can be tracked NOW for your location showing map with azimuth and elevation plus other details from your city location.

Track the satellite on the map from your city or location and see movement details for azimuth, elevation, latitude, longitude, range, height, and movement on the map or in text.







IsCatalogInMostPopularTable: catalog: 44066, numindb: 1
Update: records affected: 1



GetName: 44066 S5 DEB

Hit Count: updated at: Sat, 23 Mar 2019 00:14:50 GMT